Location: Del Oro Observatory
(38.3044°N, 104.8119°W)
Time: 13:53:16
(UTC-06:00)

Iridium 35 - Visible Passes

Search period start: 21 August 2017 00:00
Search period end: 31 August 2017 00:00
Orbit: 776 x 779 km, 86.4° (Epoch: 21 August)

Date Brightness Start Highest point End Pass type
(mag) Time Alt. Az. Time Alt. Az. Time Alt. Az.
21 Aug 6.5 21:27:30 20° ENE 21:27:30 20° ENE 21:30:38 10° NE visible
21 Aug 6.2 23:07:58 38° WNW 23:07:58 38° WNW 23:12:09 10° NNW visible
22 Aug 7.0 20:53:53 11° ENE 20:53:53 11° ENE 20:54:47 10° ENE visible
22 Aug 5.3 22:34:20 65° NNW 22:34:20 65° NNW 22:38:52 10° N visible
23 Aug 5.2 22:00:41 53° ENE 22:00:41 53° ENE 22:05:15 10° NNE visible
23 Aug 7.4 23:41:09 15° WNW 23:41:14 15° WNW 23:44:14 10° NW visible
24 Aug 5.9 21:27:02 30° ENE 21:27:02 30° ENE 21:31:16 10° NNE visible
24 Aug 6.7 23:07:29 28° W 23:07:29 28° W 23:11:54 10° NNW visible
25 Aug 6.6 20:53:21 16° E 20:53:33 16° E 20:56:39 10° NE visible
25 Aug 5.6 22:33:48 52° W 22:33:48 52° W 22:38:51 10° N visible
26 Aug 4.8 22:00:05 82° ESE 22:00:12 83° E 22:05:26 10° N visible
26 Aug 7.8 23:41:29 10° WNW 23:41:35 10° WNW 23:41:39 10° WNW visible
27 Aug 5.3 21:26:21 42° E 21:26:46 43° E 21:31:41 10° NNE visible
27 Aug 7.2 23:06:48 19° W 23:07:40 20° WNW 23:11:24 10° NNW visible
28 Aug 6.1 20:52:35 22° E 20:53:27 23° E 20:57:31 10° NNE visible
28 Aug 6.3 22:33:01 33° WSW 22:33:55 36° W 22:38:42 10° NNW visible
29 Aug 6.8 20:18:46 11° E 20:20:15 12° ENE 20:22:20 10° NE visible
29 Aug 5.2 21:59:13 53° SW 22:00:17 68° W 22:05:30 10° N visible
30 Aug 4.9 21:25:22 45° SSE 21:26:47 64° E 21:31:57 10° N visible
30 Aug 7.7 23:05:48 11° W 23:07:58 13° WNW 23:10:27 10° NW visible
